Miscellaneous Local Product
Issued by NWS Hastings, NE

Home | Current Version | Previous Version | Text Only | Print | Product List | Glossary Off
Versions: 1 2 3 4 5 6 7 8 9 10 11 12 13 14 15 16 17 18 19 20 21 22 23 24 25 26 27 28 29 30 31 32 33 34 35 36 37 38 39 40 41 42 43 44 45 46 47 48 49 50

000
AXUS43 KGID 220502
MISGRI

GID CWA HOURLY WEATHER ROUNDUP
NATIONAL WEATHER SERVICE HASTINGS NE
1200 AM CDT MON MAY 22 2017

NOTE: "FAIR" INDICATES FEW OR NO CLOUDS BELOW 12,000 FEET WITH NO
SIGNIFICANT WEATHER AND/OR OBSTRUCTIONS TO VISIBILITY.

...SOUTH CENTRAL NEBRASKA...

CITY           SKY/WX    TMP DP  RH WIND       PRES   REMARKS
GRAND ISLAND   PTCLDY    53  45  74 S8        30.08F
HASTINGS       CLEAR     58  44  60 S6        30.09F
KEARNEY        CLOUDY    57  45  62 W3        30.10S
ORD            CLOUDY    54  43  66 W3        30.06R
YORK           CLEAR     54  45  71 S7        30.08F
AURORA         CLEAR     57  42  56 S8        30.08F
LEXINGTON      CLOUDY    55  49  82 W6        30.11S
HOLDREGE       CLOUDY    58  43  55 S8        30.10S
HEBRON         PTCLDY    56  45  67 S8        30.09F

...NEBRASKA PANHANDLE...

CITY           SKY/WX    TMP DP  RH WIND       PRES   REMARKS
CHADRON        CLEAR     45  42  89 SW6       30.17R
ALLIANCE       CLEAR     37  36  96 W8        30.16F WCI  31
SCOTTSBLUFF    CLEAR     46  32  58 SW7       30.19F
SIDNEY         CLOUDY    44  40  85 W9        30.20F

...WESTERN AND NORTH CENTRAL NEBRASKA...

CITY           SKY/WX    TMP DP  RH WIND       PRES   REMARKS
VALENTINE      PTCLDY    50  42  74 W10       30.07S
AINSWORTH      PTCLDY    50  46  88 W9        30.07S
ONEILL         CLOUDY    55  45  69 SW6       30.04F
BROKEN BOW     CLEAR     51  46  83 SW7       30.08F
IMPERIAL       MOCLDY    54  46  74 NW6       30.16R
NORTH PLATTE   CLOUDY    52  46  80 W7        30.12S
MCCOOK         CLOUDY    55  47  74 W7        30.13R

...EASTERN NEBRASKA...

CITY           SKY/WX    TMP DP  RH WIND       PRES   REMARKS
NORFOLK        MOCLDY    54  40  59 S10       30.03F
SO SIOUX CITY  CLEAR     49  46  90 S6        30.02F
TEKAMAH        CLEAR     51  46  83 S6        30.05F
COLUMBUS       CLEAR     52  43  71 S6        30.07F
ALBION         PTCLDY    49  43  78 SE3       30.05F
OMAHA EPPLEY   CLEAR     51  45  79 SE7       30.08F
MILLARD        CLEAR     53  48  84 CALM      30.09F
LINCOLN        CLEAR     54  46  74 S5        30.09F
NEBRASKA CITY  CLEAR     55  40  58 S5        30.10F
BEATRICE       CLEAR     55  47  73 CALM      30.10S
FALLS CITY     CLEAR     55  44  66 S6        30.10F

...NORTHERN KANSAS...

CITY           SKY/WX    TMP DP  RH WIND       PRES   REMARKS
GOODLAND       LGT RAIN  55  49  80 CALM      30.18R
HILL CITY      CLOUDY    57  51  80 CALM      30.13S
NORTON         CLOUDY    55  46  71 S7        30.10F
PHILLIPSBURG   PTCLDY    57  48  72 CALM      30.10F
SMITH CENTER   MOCLDY    55  50  82 SE3       30.11F
HAYS           PTCLDY    55  51  86 SW8       30.12F
RUSSELL        PTCLDY    57  50  77 NW3       30.11S
CONCORDIA      CLOUDY    60  52  74 SW15      30.11S
SALINA         PTCLDY    58  53  84 S7        30.11F
TOPEKA         CLEAR     56  53  90 CALM      30.11S



USA.gov is the U.S. government's official web portal to all federal, state and local government web resources and services.